Vertical_Velocity
-1 -1 -1 -1 -0 -1 -1 -1 -0 0 -0 -1 -1 0 1 1 1 1 -0 -1 -1 1 -0 -6 -4 1 3 16 11 9 -5 -4 -5 -7 3 -2 -2 5 4 3 3 1 0 3 1
-3 -3 -2 -2 -2 -1 -1 -2 -1 0 1 -0 0 0 1 1 1 1 1 -0 -0 1 1 -1 -2 2 -1 -4 -4 -6 6 -6 -5 -1 -5 -3 5 5 3 -0 1 4 2 2 3
-1 -1 -2 -2 -2 -1 -1 -2 -1 -3 -2 -0 1 1 2 -1 -1 4 2 0 1 2 -0 -5 -1 2 -0 7 -5 0 1 5 1 -1 -8 -1 1 -1 2 2 -0 -4 1 3 3
-1 -0 -0 -0 -1 -2 -2 -2 -2 -3 -1 -0 -2 -0 3 3 1 2 2 3 3 2 2 -8 3 -3 -2 2 0 -11 -2 2 1 1 -1 -1 -1 2 1 1 2 1 -2 -0 -3
1 1 0 0 -1 -1 -0 -1 -1 -0 1 -1 -1 -1 2 1 2 0 1 3 3 4 1 -7 -1 -4 0 -6 1 -1 -5 -5 -4 -0 -1 -1 11 1 -4 1 3 3 -1 1 2
1 0 -0 -0 1 1 -1 -1 -2 -2 -1 -1 1 1 3 -3 0 1 1 1 3 3 1 -6 -7 -2 6 -3 0 -3 4 -3 -4 -0 -4 -4 -2 2 -2 -1 -0 -2 2 1 2
-2 1 -0 0 -1 1 1 -0 -0 1 -2 -1 -0 2 5 -2 -0 1 0 1 1 4 -1 1 -2 3 1 4 1 -0 -1 17 -1 -2 -3 -1 -3 -1 -4 -4 -2 -2 2 2 4
-2 -2 -2 -1 -1 -1 -1 1 1 0 -1 -1 1 1 -0 1 4 -0 0 1 0 2 4 4 -1 3 0 4 1 7 4 -3 1 15 -0 -2 -3 2 -0 0 -3 -1 -5 5 5
-2 -3 -2 -3 -2 -1 -1 0 0 1 3 0 -2 -0 -2 4 -0 5 3 -2 -2 1 1 2 2 -5 -1 -3 5 2 2 -2 4 -3 1 6 -1 -1 -0 -3 -3 -1 -0 -2 1
-1 -0 -1 -1 -1 -1 -1 -1 -1 -1 -0 1 1 -2 1 2 0 0 2 3 -1 -1 2 2 -3 -3 -5 2 0 2 6 0 -7 1 -9 11 1 -6 -2 2 -8 3 2 -3 -2
1 -1 -1 -0 1 -0 -1 -1 -0 -1 -2 -1 -1 0 2 -2 -0 -3 -3 1 3 1 1 2 -4 3 2 1 -5 -1 -1 0 -0 -2 7 6 -3 -2 -3 -2 -3 3 3 -2 -1
-1 -1 -1 -1 -0 1 0 -0 -1 1 -2 -1 -1 -1 3 -6 1 -1 1 2 1 4 -2 -2 6 3 0 0 -0 -5 2 -2 4 -1 2 -5 -7 -6 3 -8 1 -6 4 2 -3
-2 -2 -2 -2 -2 -1 -1 -1 -0 0 -1 0 -0 -2 -0 -1 0 -1 2 -1 1 -0 0 3 4 -2 1 3 -3 -2 4 -3 0 1 1 2 -6 -1 2 -5 1 -5 2 1 2
-1 -2 -1 -2 -2 -2 -2 -1 -1 -2 -1 -2 -2 -3 -3 -2 -3 -1 -1 3 1 3 1 6 -3 2 -1 -2 1 -4 0 -0 -4 -0 3 2 -2 -0 -9 -7 -2 -1 1 2 3
-3 -2 -2 -3 -2 -2 -3 -2 -2 2 -2 -4 -2 -4 0 -2 1 -4 -3 0 2 4 -2 9 -1 2 -3 6 -3 1 -2 -1 -2 -2 2 1 -6 -1 -6 3 4 -0 4 1 -2
-2 -2 -3 -2 -3 -2 -2 -3 -3 -3 2 -2 -2 0 -2 -1 -1 1 1 1 -1 -0 -4 1 -2 -8 4 1 -6 2 0 -4 -2 -0 -12 1 1 -4 3 4 3 11 3 5 3
0 -1 -2 -2 -3 -2 -2 -4 -4 -2 -1 1 2 -5 -3 -3 -1 -2 2 -4 -3 3 -1 9 4 4 1 2 -1 6 0 -1 0 -4 1 -3 -4 -2 4 -4 5 5 -3 2 -5
-2 -1 -1 -2 -2 -2 -1 -3 -5 -4 -5 -6 -4 4 -5 -2 -3 -4 -0 -1 -0 -0 -6 -4 2 -4 2 -1 3 5 -0 -3 -2 -5 9 3 -3 14 -5 -3 -3 -3 -2 3 -2
-1 -0 -2 -0 -1 -0 0 -3 -0 -4 -5 -4 -5 -4 -1 -3 -4 -5 -1 1 -2 0 -3 2 -3 -7 -11 5 7 8 2 11 3 -5 -2 -5 0 -4 0 -12 2 -8 -4 -3 1
-2 0 -4 -0 -1 -0 1 -1 -3 -2 -3 -3 -2 -4 -1 -1 -0 -4 -1 -4 3 -7 -1 -3 9 -0 6 -4 -10 -1 8 5 -3 -5 -6 7 -5 -6 0 -4 -12 -4 -6 -5 -13
-1 1 -9 -3 -3 1 2 0 -1 -2 3 -3 -4 -0 -4 -2 -2 -4 -2 2 -8 2 -0 1 3 1 9 -11 1 1 3 5 -3 -3 3 6 -4 -6 -0 1 -14 -8 -2 -1 -7
-4 -0 3 -4 -4 -1 -2 2 6 -7 -3 1 -2 0 -1 0 -1 -3 -3 -2 -6 0 2 4 -1 1 3 5 5 -3 4 -3 0 5 2 1 -2 -4 3 11 11 7 8 -3 1
0 -7 1 6 3 3 -3 -0 1 -2 -1 0 3 -0 -2 2 -2 -1 -2 1 -1 -4 1 4 2 5 9 4 0 -8 -5 3 -3 2 3 10 -1 -3 2 19 15 13 13 7 6
-1 -6 -3 0 -5 1 2 2 2 1 1 -4 -2 2 -1 1 -3 0 1 2 -2 -3 -1 5 3 3 5 -2 -2 -3 1 6 6 13 3 4 1 -4 -2 32 4 1 9 5 6
1 -6 -1 -7 -0 -2 -5 1 0 -1 -2 -3 3 2 -0 2 6 0 3 5 4 -6 -3 -16 -4 1 8 6 3 1 3 15 5 10 -12 8 2 -10 1 -5 7 -11 -3 27 16
-2 5 -0 0 -2 -2 -1 4 3 2 -6 3 -4 4 0 1 6 -4 -2 -1 3 -1 1 -5 -6 -0 -6 13 5 2 13 -15 17 -40 -7 3 2 -0 -6 -7 -3 3 3 -1 7
-4 1 -0 6 1 -3 2 -5 5 5 -0 8 -14 4 8 -0 7 7 -1 7 5 1 0 -0 2 -2 3 4 4 18 8 2 1 -6 -11 -7 -9 13 21 8 8 4 -4 -3 4
Height
5892 5892 5893 5894 5894 5895 5895 5896 5896 5897 5898 5898 5899 5900 5900 5902 5903 5903 5904 5905 5905 5906 5907 5907 5909 5911 5908 5907 5909 5910 5911 5910 5913 5911 5914 5914 5915 5918 5918 5916 5916 5916 5915 5915 5913
5891 5892 5892 5893 5894 5894 5895 5896 5896 5897 5897 5897 5899 5900 5901 5901 5902 5903 5904 5904 5905 5906 5908 5909 5911 5915 5915 5913 5913 5913 5915 5913 5914 5917 5914 5917 5921 5923 5921 5918 5918 5917 5917 5918 5917
5890 5890 5891 5891 5892 5893 5894 5894 5895 5896 5897 5898 5899 5899 5901 5901 5902 5903 5904 5904 5905 5906 5906 5908 5912 5914 5915 5914 5915 5914 5916 5917 5917 5918 5915 5917 5920 5921 5922 5921 5919 5917 5918 5920 5921
5888 5889 5889 5890 5890 5891 5892 5893 5894 5895 5896 5897 5899 5900 5900 5900 5903 5903 5904 5905 5905 5906 5906 5905 5911 5911 5914 5918 5917 5916 5916 5917 5919 5919 5918 5921 5921 5922 5922 5924 5922 5921 5920 5920 5920
5887 5887 5888 5888 5888 5888 5889 5889 5890 5891 5893 5895 5897 5899 5901 5901 5901 5901 5903 5904 5905 5905 5905 5903 5907 5910 5915 5917 5914 5916 5917 5918 5919 5919 5919 5919 5925 5924 5922 5923 5924 5924 5922 5922 5922
5887 5887 5887 5886 5886 5886 5887 5887 5888 5888 5890 5892 5894 5897 5899 5899 5900 5900 5901 5903 5904 5904 5903 5901 5905 5913 5918 5919 5919 5918 5919 5919 5919 5918 5918 5919 5920 5921 5921 5922 5922 5924 5927 5926 5926
5888 5886 5887 5886 5885 5884 5884 5884 5884 5885 5887 5888 5891 5893 5896 5896 5898 5899 5900 5901 5902 5903 5901 5902 5907 5912 5915 5919 5919 5919 5918 5917 5920 5916 5918 5921 5921 5921 5921 5921 5923 5925 5929 5932 5931
5890 5889 5887 5886 5885 5883 5883 5882 5881 5882 5883 5884 5886 5889 5891 5892 5894 5896 5897 5899 5900 5902 5902 5902 5906 5909 5912 5915 5918 5917 5918 5919 5918 5915 5919 5922 5923 5925 5925 5924 5924 5927 5928 5932 5934
5891 5890 5888 5886 5885 5883 5882 5881 5881 5881 5880 5881 5883 5885 5887 5888 5890 5893 5894 5896 5898 5900 5901 5901 5902 5906 5909 5912 5917 5917 5917 5918 5921 5919 5917 5921 5920 5923 5926 5927 5926 5929 5929 5931 5933
5892 5890 5888 5886 5884 5883 5882 5881 5881 5880 5879 5879 5879 5882 5882 5884 5886 5888 5890 5892 5894 5896 5899 5900 5899 5901 5906 5910 5913 5915 5916 5915 5916 5917 5919 5918 5920 5921 5924 5926 5926 5929 5930 5929 5932
5892 5890 5887 5885 5883 5882 5881 5880 5880 5880 5877 5877 5877 5876 5878 5878 5881 5883 5886 5888 5891 5894 5896 5897 5898 5901 5904 5906 5907 5911 5911 5913 5915 5913 5913 5918 5920 5921 5922 5925 5925 5926 5928 5927 5930
5891 5889 5886 5884 5882 5881 5880 5879 5877 5876 5875 5873 5873 5872 5874 5874 5876 5878 5881 5884 5887 5889 5890 5894 5897 5900 5902 5903 5905 5907 5910 5909 5912 5914 5915 5913 5917 5920 5921 5923 5923 5924 5926 5927 5928
5888 5886 5885 5883 5881 5879 5877 5876 5875 5874 5872 5872 5869 5869 5870 5871 5871 5873 5876 5878 5881 5883 5886 5890 5894 5895 5898 5900 5901 5903 5907 5907 5910 5911 5910 5913 5914 5917 5918 5919 5920 5922 5923 5925 5927
5886 5884 5882 5880 5879 5876 5874 5873 5873 5873 5870 5868 5866 5865 5866 5866 5867 5867 5869 5873 5876 5879 5879 5885 5887 5889 5892 5896 5899 5900 5904 5904 5904 5906 5908 5910 5912 5914 5911 5916 5918 5923 5922 5923 5926
5882 5880 5879 5877 5876 5873 5872 5870 5868 5869 5869 5866 5863 5862 5860 5862 5863 5862 5863 5867 5869 5871 5874 5882 5879 5884 5887 5891 5894 5899 5900 5901 5901 5902 5903 5906 5910 5911 5910 5914 5919 5923 5924 5924 5921
5879 5877 5875 5874 5872 5871 5869 5867 5866 5866 5862 5863 5859 5859 5857 5856 5857 5858 5857 5861 5863 5865 5870 5875 5875 5876 5882 5886 5888 5892 5896 5897 5897 5898 5901 5905 5907 5909 5912 5916 5919 5921 5922 5926 5923
5874 5872 5870 5868 5867 5866 5864 5863 5862 5858 5859 5858 5856 5853 5852 5850 5851 5853 5853 5855 5857 5861 5866 5868 5870 5872 5874 5879 5883 5886 5890 5893 5895 5895 5902 5902 5903 5908 5910 5911 5915 5917 5921 5923 5922
5867 5866 5864 5862 5861 5860 5859 5857 5855 5853 5851 5849 5848 5851 5847 5846 5846 5847 5848 5850 5852 5854 5856 5860 5864 5867 5870 5873 5877 5883 5886 5888 5889 5892 5902 5899 5903 5907 5906 5906 5908 5910 5914 5916 5918
5860 5859 5857 5856 5854 5853 5853 5850 5848 5846 5844 5843 5842 5840 5843 5842 5840 5842 5843 5844 5845 5846 5852 5854 5860 5862 5864 5869 5874 5878 5881 5886 5885 5889 5893 5894 5899 5897 5898 5897 5901 5903 5907 5910 5913
5852 5852 5848 5847 5846 5845 5845 5842 5840 5838 5837 5836 5836 5835 5834 5836 5835 5835 5837 5837 5839 5840 5843 5847 5853 5854 5858 5862 5865 5868 5874 5877 5878 5883 5886 5891 5893 5894 5894 5893 5896 5897 5899 5901 5902
5843 5843 5839 5837 5837 5837 5835 5834 5832 5830 5830 5829 5829 5830 5828 5829 5828 5827 5831 5833 5833 5837 5837 5840 5845 5849 5853 5853 5859 5862 5864 5868 5873 5877 5881 5888 5887 5889 5892 5891 5887 5891 5893 5896 5901
5830 5830 5831 5827 5827 5825 5824 5824 5824 5820 5820 5821 5822 5821 5822 5822 5820 5819 5821 5824 5828 5831 5834 5837 5839 5843 5845 5849 5854 5856 5860 5862 5865 5870 5876 5882 5883 5884 5885 5886 5886 5887 5891 5896 5900
5820 5815 5815 5817 5818 5816 5814 5814 5813 5812 5811 5809 5812 5813 5814 5814 5813 5814 5813 5816 5818 5824 5827 5832 5834 5838 5841 5844 5844 5847 5852 5856 5860 5863 5870 5874 5877 5878 5877 5879 5883 5888 5888 5891 5896
5808 5804 5802 5803 5803 5802 5802 5803 5803 5802 5800 5798 5798 5803 5804 5802 5805 5806 5806 5808 5811 5814 5819 5824 5828 5832 5836 5836 5839 5841 5843 5847 5852 5857 5862 5866 5870 5871 5868 5871 5875 5876 5877 5884 5887
5794 5792 5790 5789 5789 5786 5786 5790 5789 5790 5788 5787 5788 5791 5793 5793 5797 5795 5798 5799 5802 5805 5810 5815 5821 5825 5829 5831 5833 5836 5839 5841 5844 5849 5856 5859 5864 5864 5865 5866 5867 5865 5871 5868 5873
5778 5778 5776 5775 5773 5772 5773 5775 5774 5777 5775 5774 5775 5780 5782 5782 5787 5787 5788 5791 5794 5798 5800 5804 5809 5814 5821 5825 5826 5830 5832 5831 5837 5840 5848 5851 5857 5858 5859 5862 5862 5864 5868 5869 5870
5760 5759 5759 5759 5758 5757 5759 5757 5759 5763 5764 5764 5764 5767 5771 5771 5775 5778 5778 5782 5785 5787 5790 5796 5800 5805 5810 5817 5820 5826 5824 5827 5831 5834 5840 5845 5851 5853 5856 5856 5858 5861 5864 5865 5861